Other Public Products
Issued by NWS Grand Forks, ND

Home | Current Version | Previous Version | Graphics & Text | Print | Product List | Glossary On
Versions: 1 2 3 4 5 6 7 8 9 10 11 12 13 14 15 16 17 18 19 20 21 22 23 24 25 26 27 28 29 30 31 32 33 34 35 36 37 38 39 40 41 42 43 44 45 46 47 48 49 50
000
FPUS83 KFGF 290431
OPUFGF
PRAIRIE TO PINES WEATHER ROUNDUP
NATIONAL WEATHER SERVICE EASTERN NORTH DAKOTA/GRAND FORKS ND
1100 PM CDT THU JUL 28 2016

 **SATELLITE DATA USED TO AUGMENT SKY COVER AT AUTOMATED STATIONS**
 *****  WEATHER ACROSS EASTERN NORTH DAKOTA  *****

CITY           SKY/WX    TMP DP  RH WIND       PRES   REMARKS
GRAND FORKS    CLEAR     58  55  90 NW6       30.10R
GRAND FORKS AF CLEAR     59  56  89 NW5       30.11R
GRAND CITY NWS   N/A     61 N/A N/A NW7         N/A
BUXTON           N/A     63  61  94 NW5         N/A
DEVILS LAKE    CLEAR     61  57  87 NE6       30.14R
FARGO          CLEAR     64  59  83 N7        30.08S
WAHPETON ARPT  MOCLDY    66  59  77 NE5       30.08S
$$

 *****  WEATHER ACROSS CENTRAL AND WESTERN NORTH DAKOTA  *****

CITY           SKY/WX    TMP DP  RH WIND       PRES   REMARKS
JAMESTOWN      MOCLDY    64  61  90 NE5       30.11R
BISMARCK       MOCLDY    69  55  60 N9        30.12R
MINOT          CLOUDY    63  55  75 CALM      30.13R
MINOT AFB      PTCLDY    66  54  64 NE1       30.12R
GARRISON         N/A     62  57  83 N3        30.13R
WILLISTON      PTCLDY    64  53  67 CALM      30.13S
DICKINSON      CLOUDY    60  57  89 NE3       30.14R
HETTINGER      MOCLDY    61  56  83 CALM      30.16S
$$

 *****  OTHER OBSERVATIONS NORTHEAST NORTH DAKOTA  *****

CITY           SKY/WX    TMP DP  RH WIND       PRES   REMARKS
WALHALLA       FAIR      57  54  88 CALM      30.12R
LANGDON        FAIR      55  55 100 S3        30.15R
CAVALIER       FAIR      57  57 100 W3        30.11S
GRAFTON        FAIR      61  59  94 NW3       30.12S
CANDO          FAIR      59  59 100 CALM      30.16S
FORT TOTTEN      N/A     63  58  84 E3        29.95S
ROLLA          FAIR      55  55 100 CALM      30.15S
RUGBY          NOT AVBL
 ***** THE ABOVE OBSERVATIONS ARE NON NWS ARE NOT QUALITY
        CONTROLLED AND MAY MIS-REPORT RAIN FOR SNOW...
$$

 *****  OTHER OBSERVATIONS SOUTHEAST NORTH DAKOTA *****

CITY           SKY/WX    TMP DP  RH WIND       PRES   REMARKS
COOPERSTOWN    NOT AVBL
VALLEY CITY    FAIR      64  63  94 NE3       30.13S
OAKES            N/A    N/A N/A N/A MISG        N/A
GWINNER        FAIR      64  61  88 N6        30.10S
SHEYENNE NWR     N/A     66  59  79 NE7       29.95S
BUFFALO          N/A     62  58  87 NE5         N/A
WYNDMERE         N/A     66  63  88 N5          N/A
 ***** THE ABOVE OBSERVATIONS ARE NON NWS ARE NOT QUALITY
       CONTROLLED AND MAY MIS-REPORT RAIN FOR SNOW...
$$

  *****  WEATHER ACROSS NORTHERN MINNESOTA  *****

CITY           SKY/WX    TMP DP  RH WIND       PRES   REMARKS
FLAG ISLAND    CLEAR     68  55  64 CALM      30.08S
WARROAD        CLEAR     57  54  88 CALM      30.10S
ROSEAU         CLEAR     57  54  88 CALM      30.10S
HALLOCK        CLEAR     61  55  82 NW3       30.10R
THF RVR FALLS  CLEAR     62  55  77 CALM      30.11R
HALSTAD          N/A     59  57  93 N6          N/A
FOSSTON        CLEAR     54  48  82 CALM      30.11R
BAUDETTE       CLEAR     59  54  83 CALM      30.09S
WASKISH        PTCLDY    63  55  77 NE5       30.09S
CROOKSTON      CLEAR     61  57  88 CALM      30.11S
$$
  *****  WEATHER ACROSS CENTRAL AND WEST MINNESOTA  *****

CITY           SKY/WX    TMP DP  RH WIND       PRES   REMARKS
BEMIDJI        CLEAR     55  54  94 CALM      30.09S
PARK RAPIDS    CLEAR     66  56  70 N3        30.09R
WADENA         CLEAR     59  57  94 CALM      30.09R
DETROIT LAKES  CLEAR     64  59  82 CALM      30.11R
MOORHEAD       CLEAR     63  59  88 N5        30.10R
FERGUS FALLS   CLEAR     70  61  73 CALM      30.09S
ELBOW LAKE     FAIR      63  61  93 S5        30.09R
MORRIS MN      CLOUDY    68  63  83 CALM      30.08S
STAPLES        CLEAR     63  57  82 CALM      30.10R
WHEATON        CLOUDY    68  66  94 CALM      30.09S
$$
  *****  WEATHER ELSEWHERE ACROSS MINNESOTA  *****

CITY           SKY/WX    TMP DP  RH WIND       PRES   REMARKS
DULUTH         PTCLDY    57  51  80 CALM      30.10S
INTRNTL FALLS  CLEAR     54  52  93 CALM      30.09R
ELY            CLEAR     54  50  87 CALM      30.12R
CLOQUET        CLEAR     57  52  82 E3        30.10S
BRAINERD       CLEAR     60  58  92 CALM      30.09R
HIBBING        CLEAR     52  52 100 CALM      30.11S
ALEXANDRIA     MOCLDY    65  57  75 SE6       30.11R
SAINT CLOUD    PTCLDY    61  56  83 CALM      30.08R
MINNEAPOLIS    PTCLDY    69  57  65 NE7       30.04R
$$

  *****  WEATHER ACROSS SOUTH DAKOTA  *****

CITY           SKY/WX    TMP DP  RH WIND       PRES   REMARKS
SIOUX FALLS    PTCLDY    61  56  83 N3        30.07R
BROOKINGS      CLOUDY    64  55  72 E3        30.09R
WATERTOWN      CLEAR     67  56  67 E3        30.10R
HURON          MOCLDY    68  56  65 SE6       30.08R
SISSETON         N/A     68  64  87 CALM      30.07R
ABERDEEN       PTCLDY    65  60  84 CALM      30.08R
MITCHELL       CLOUDY    69  61  75 E3        30.08R
PIERRE         CLOUDY    65  63  93 CALM      30.08R
MOBRIDGE       CLOUDY    68  56  65 N8        30.08R
RAPID CITY     MOCLDY    61  56  83 E7        30.16R
$$

  *****  SOME WEATHER IN NEARBY STATES *****

CITY           SKY/WX    TMP DP  RH WIND       PRES   REMARKS
GLASGOW MT     CLEAR     66  57  72 E6        30.10S
GREAT FALLS MT CLEAR     72  46  39 E8        30.08R
CHEYENNE WY    CLEAR     63  56  78 CALM      30.29R
SCOTTSBLUFF NE CLEAR     67  61  81 SE3       30.17R
OMAHA NE       CLOUDY    75  62  64 E7        30.03R
DES MOINES IA  PTCLDY    72  64  76 N5        29.98R
DAVENPORT IA   CLEAR     68  66  93 W6        29.93R
CHICAGO IL     PTCLDY    71  69  93 N6        29.92R
EAU CLAIRE WI  CLOUDY    65  62  90 NW3       30.03S
LA CROSSE WI   CLOUDY    64  62  93 N6        30.00S
$$

  *****  SOME NATIONAL WEATHER *****

CITY           SKY/WX    TMP DP  RH WIND       PRES   REMARKS
LA GUARDIA NY  LGT RAIN  80  71  74 N10       29.86F
RALEIGH NC     CLEAR     82  70  66 SW9       29.87R
ATLANTA GA     MOCLDY    79  71  76 W9        30.01F
NEW ORLEANS LA PTCLDY    83  72  69 SE3       30.01F
OKLAHOMA CITY  MOCLDY    80  74  81 E5        29.97R
ALBUQUERQUE NM PTCLDY    85  48  27 W5        30.13R
SALT LAKE CITY PTCLDY    86  44  23 N5        30.01R
LOS ANGELES CA PTCLDY    70  66  87 W9        29.85R
BOISE ID       CLEAR     87  39  18 NE5       29.93R
SEATTLE WA     CLEAR     79  62  56 N9        30.03S
$$

*** WEATHER ACROSS MANITOBA...SASKATCHEWAN AND ONTARIO ***
                ***ONTARIO***

CITY           SKY/WX    TMP DP  RH WIND       PRES   REMARKS
GERALDTON      PTCLDY    57  54  88 NW3       30.10R
THUNDER BAY    PTCLDY    55  54  94 W3        30.09S
SIOUX LOOKOUT  CLEAR     52  52 100 CALM      30.10R
TORONTO        LGT RAIN  70  66  88 N15       29.92S
BIG TROUT LK   CLEAR     55  54  94 SW3       30.04F
PICKLE LAKE    NOT AVBL
DRYDEN         CLEAR     63  54  72 SE2       30.11R
KENORA         CLEAR     66  54  63 E3        30.10F
$$
                *** MANITOBA***

CITY           SKY/WX    TMP DP  RH WIND       PRES   REMARKS
BRANDON        PTCLDY    59  54  82 SW9       30.11S
DAUPHIN        PTCLDY    64  59  82 SW9       30.06S
ISLAND LAKE    MOCLDY    66  59  77 S6        30.03R
PILOT MOUND      N/A     57  55  94 S5          N/A
THE PAS        PTCLDY    68  61  77 W3        30.01F
THOMPSON       PTCLDY    59  57  94 CALM      30.01R
WINNIPEG       PTCLDY    59  52  77 SW3       30.10
LYNN LAKE      CLOUDY    66  57  72 MISG      30.01S
CHURCHILL      PTCLDY    52  45  76 E5        30.09S
GILLAM         PTCLDY    61  59  94 NE5       30.04S
$$
                ***SASKATCHEWAN***

CITY           SKY/WX    TMP DP  RH WIND       PRES   REMARKS
ESTEVAN        MOCLDY    61  55  82 S5        30.13S
KINDERSLEY     MOCLDY    61  59  94 E6        30.06S
LLOYDMINSTER   CLOUDY    64  59  82 NW6       30.05F
PRINCE ALBERT  MOCLDY    63  59  88 CALM      30.02F
REGINA         PTCLDY    63  52  67 SE5       30.10R
YORKTON        CLEAR     66  57  72 SW8       30.09R  C1F1C2F2C3F3C4F4C5F5C6F6C7F7C8F8C9F9CaFaCbFbCcFcCdFdCe!



USA.gov is the U.S. government's official web portal to all federal, state and local government web resources and services.